SL-12 DEB, 39801

Orbit data source: Space-Track

SL-12 DEB, 39801 is space debris in HEO originally from a launch on Thu, 25 Sep 2008 UTC launched from the Tyuratam Missile And Space Complex (TTMTR). Debris objects in space refer to the collection of defunct objects orbiting the Earth. Examples of debris include non-operational satellites, rocket bodies, and fragments generated from explosions, collisions, or faulty payload assembly.

Loading next visibility...
Identifier
39801, 2008-046N
Orbit
HEO
Country
Flag of CISCIS
Related business
Manufacturer
Unknown
Mission
Spacecraft
Bus & Motor
Unknown
Mass
Unknown
Launch date (UTC)
2008-09-25 (18 years ago)
Launch vehicle
Unknown
Launch site
Tyuratam Missile And Space Complex (TTMTR)
Object type
Payload
Rocket body
Debris
Shape & HBR
Unknown shape, 0.2 m
Radar Cross Section
Medium (>0.1 m² and <1 m²)

Expand to show TLE details & history
Last TLE update: 2 days ago

TLE from 2 days ago
0 SL-12 DEB
1 39801U 08046N   26171.26050000  .00000293  00000-0  21630-3 0  9998
2 39801  65.0199 133.0301 5481918 234.5521  61.3988  4.71378911201371
Epoch: 2026-06-20T06:15Z
TLE epoch observation values (Epoch: 2026-06-20T06:15:07.200Z)
Latitude
-0.00001°
Longitude
130.76778°
Altitude
9,050.469 km
Speed
5.015 km/s
True Right ascension
08h 52m 06s
True Declination
0° 00' 00"
Sunlit
Object was in daylight at epoch
Visualization orbit readout
Latitude
Unknown
Longitude
Unknown
Altitude
Unknown
Speed
Unknown
Apparent Right ascension
Unknown
Apparent Declination
Unknown
Sunlit
N/A
Visualization observer readout
Local Sidereal Time
01:06:50
Azimuth
Unknown
Elevation
Unknown
Doppler factor
Unknown
Orbital elements
Apogee altitude
16,882.045 km
Perigee altitude
409.873 km
Semi-major axis
15,024.096 km
Eccentricity
0.54819
Inclination
65.0199°
RAAN
133.0301°
Arg. of periapsis
234.5521°
True anomaly
125.53052°
Mean anomaly
61.3988°
Eccentric anomaly
92.77115°
Mean motion
1.17858 °/min
Orbital period
305.45 mins
BSTAR
0.0002163
Loading maneuver chart data...
Computing Atmospheric mass density...
Loading historical data...
Loading historical data...
Loading historical data...
Loading historical data...
Loading historical data...
Loading historical data...
Loading historical data...

Documentation

Showing up to 5 results
|